(130823) = 2000 UJ22

Discovered at Socorro on 2000-10-24 by LINEAR.

Orbit

Orbit type: Main Belt

Note: WebGL enabled browser required.

epoch2023-09-13.0
epoch JD2460200.5
perihelion date2021-10-28.69432
perihelion JD2459516.19432
argument of perihelion (°)354.21245
ascending node (°)96.86652
inclination (°)3.13084
eccentricity0.1490110
perihelion distance (AU)2.1829262
Tisserand w.r.t. Jupiter3.4
ΔV w.r.t. Earth (km/sec)9.3
semimajor axis (AU)2.5651637
mean anomaly (°)164.16530
mean daily motion (°/day)0.23990050
aphelion distance (AU)2.947
period (years)4.11
P-vector [x]-0.01897989
P-vector [y]0.91949364
P-vector [z]0.39264642
Q-vector [x]-0.99834836
Q-vector [y]-0.03872811
Q-vector [z]0.04243440
absolute magnitude16.11
phase slope0.15
uncertainty0
referenceMPEC 2023-N34
observations used710
oppositions15
arc length (days)8321
first opposition used2000
last opposition used2023
residual rms (arc-secs)0.70
perturbers coarse indicatorM-v
perturbers precise indicator003Ek
first observation date used2000-09-24.0
last observation date used2023-07-07.0
computer nameMPCLINUX
JD of orbit computation2456937.291768
perihelion JD uncertainty (days)2.2902E-04
argument of perihelion uncertainty (°)2.1217E-04
ascending node uncertainty (°)2.0622E-04
inclination uncertainty (°)4.2194E-06
eccentricity uncertainty 3.7016E-08
perihelion distance uncertainty (AU)9.1708E-08
Minimum Orbit Intersection Distances (in AU)
for orbit epoch: 2460000.5, reference: E2023-N34
Mercury1.87554
Venus1.4643
Earth1.19946
Mars0.58309
Jupiter2.23397
Saturn6.87697
Uranus15.9141
Neptune27.2995

Observations

728 total observations over interval: 2000 09 24.39858 – 2023 07 07.351509
These data are available for download (format description).

Date (UT) J2000 RA J2000 Dec Magn Location Ref
2000 09 24.39858 03 11 09.43 +13 16 49.6 20.0 R 699 – Lowell Observatory-LONEOS MPS 30193
2000 09 24.42107 03 11 09.36 +13 16 47.8   699 – Lowell Observatory-LONEOS MPS 30193
2000 09 24.44358 03 11 09.32 +13 16 45.9   699 – Lowell Observatory-LONEOS MPS 30193
2000 09 24.46607 03 11 09.16 +13 16 45.1   699 – Lowell Observatory-LONEOS MPS 30193
2000 10 24.38706 02 57 11.05 +12 02 41.6 19.3   704 – Lincoln Laboratory ETS, New Mexico MPS 21561
2000 10 24.41995 02 57 09.26 +12 02 34.7 19.8   704 – Lincoln Laboratory ETS, New Mexico MPS 21561
2000 10 24.43484 02 57 08.54 +12 02 31.8 20.2   704 – Lincoln Laboratory ETS, New Mexico MPS 21561
2000 10 24.44832 02 57 07.74 +12 02 28.1 19.8   704 – Lincoln Laboratory ETS, New Mexico MPS 21561
2000 10 31.29728 02 51 02.16 +11 38 36.8 19.6   704 – Lincoln Laboratory ETS, New Mexico MPS 21561
2000 10 31.32605 02 51 00.48 +11 38 30.7 19.3   704 – Lincoln Laboratory ETS, New Mexico MPS 21561
2000 10 31.34002 02 50 59.64 +11 38 28.9 19.5   704 – Lincoln Laboratory ETS, New Mexico MPS 21561
2000 11 02.29488 02 49 09.84 +11 31 40.2 18.7   704 – Lincoln Laboratory ETS, New Mexico MPS 21561
2000 11 02.30937 02 49 08.94 +11 31 38.2 19.0   704 – Lincoln Laboratory ETS, New Mexico MPS 21561
2000 11 02.32398 02 49 08.11 +11 31 34.7 18.6   704 – Lincoln Laboratory ETS, New Mexico MPS 21561
2000 11 02.33819 02 49 07.20 +11 31 31.0 19.1   704 – Lincoln Laboratory ETS, New Mexico MPS 21561
2000 11 02.35262 02 49 06.44 +11 31 28.8 19.3   704 – Lincoln Laboratory ETS, New Mexico MPS 21561
2000 11 05.30937 02 46 17.93 +11 21 24.4 18.6   704 – Lincoln Laboratory ETS, New Mexico MPS 21561
2000 11 05.32309 02 46 17.16 +11 21 22.1 18.8   704 – Lincoln Laboratory ETS, New Mexico MPS 21561
2000 11 05.33684 02 46 16.33 +11 21 19.2 18.8   704 – Lincoln Laboratory ETS, New Mexico MPS 21561
2000 11 05.35066 02 46 15.51 +11 21 16.1 18.8   704 – Lincoln Laboratory ETS, New Mexico MPS 21561
2000 11 05.36718 02 46 14.58 +11 21 13.1 18.4   704 – Lincoln Laboratory ETS, New Mexico MPS 21561
2000 11 19.21084 02 33 31.64 +10 41 28.9 18.4 R 699 – Lowell Observatory-LONEOS MPS 25220
2000 11 19.23428 02 33 30.41 +10 41 25.0   699 – Lowell Observatory-LONEOS MPS 25220
2000 11 19.25768 02 33 29.10 +10 41 22.2   699 – Lowell Observatory-LONEOS MPS 25220
2000 11 19.28109 02 33 27.96 +10 41 19.2   699 – Lowell Observatory-LONEOS MPS 25220
2000 12 19.13366 02 19 41.12 +10 41 24.4 19.6 R 699 – Lowell Observatory-LONEOS MPS 23863
2000 12 19.15712 02 19 41.04 +10 41 26.5   699 – Lowell Observatory-LONEOS MPS 23863
2000 12 19.18047 02 19 41.00 +10 41 31.9   699 – Lowell Observatory-LONEOS MPS 23863
2000 12 19.20398 02 19 40.92 +10 41 33.9   699 – Lowell Observatory-LONEOS MPS 23863
2002 04 09.23212 12 56 38.29 -00 38 12.0 19.3 R 699 – Lowell Observatory-LONEOS MPS 54772
2002 04 09.24874 12 56 37.45 -00 38 06.7   699 – Lowell Observatory-LONEOS MPS 54772
2002 04 09.26525 12 56 36.51 -00 38 01.9   699 – Lowell Observatory-LONEOS MPS 54772
2002 04 09.28180 12 56 35.60 -00 37 57.5   699 – Lowell Observatory-LONEOS MPS 54772
2002 04 12.23957 12 54 01.23 -00 23 31.8 19.2   704 – Lincoln Laboratory ETS, New Mexico MPS 54772
2002 04 12.25379 12 54 00.45 -00 23 28.0 19.6   704 – Lincoln Laboratory ETS, New Mexico MPS 54772
2002 04 12.26776 12 53 59.73 -00 23 23.7 19.5   704 – Lincoln Laboratory ETS, New Mexico MPS 54772
2002 04 14.23303 12 52 19.62 -00 14 17.7 20.1   644 – Palomar Mountain/NEAT MPS 54772
2002 04 14.25740 12 52 18.31 -00 14 11.2 19.9   644 – Palomar Mountain/NEAT MPS 54772
2002 04 14.29352 12 52 16.46 -00 14 01.2 19.5   644 – Palomar Mountain/NEAT MPS 54772
2002 04 17.27319 12 49 49.20 -00 01 08.8 19.6   704 – Lincoln Laboratory ETS, New Mexico MPS 54500
2002 04 17.28680 12 49 48.58 -00 01 06.3 20.0   704 – Lincoln Laboratory ETS, New Mexico MPS 54500
2002 04 17.30040 12 49 47.88 -00 01 02.3 20.2   704 – Lincoln Laboratory ETS, New Mexico MPS 54500
2002 04 17.31403 12 49 47.17 -00 01 00.1 20.3   704 – Lincoln Laboratory ETS, New Mexico MPS 54500
2002 04 17.32766 12 49 46.49 -00 00 55.4 20.4   704 – Lincoln Laboratory ETS, New Mexico MPS 54500
2002 04 20.20872 12 47 31.21 +00 10 27.2 20.4   644 – Palomar Mountain/NEAT MPS 54772
2002 04 20.28181 12 47 27.74 +00 10 43.7 20.1   644 – Palomar Mountain/NEAT MPS 54772
2002 04 20.34564 12 47 24.66 +00 10 57.4 21.4   644 – Palomar Mountain/NEAT MPS 54772
2004 09 17.31802 02 05 58.33 +07 36 34.4 19.9   704 – Lincoln Laboratory ETS, New Mexico MPS 166925
2004 09 17.33027 02 05 58.04 +07 36 33.0 19.8   704 – Lincoln Laboratory ETS, New Mexico MPS 166925
2004 09 17.34245 02 05 57.76 +07 36 31.0 19.5   704 – Lincoln Laboratory ETS, New Mexico MPS 166925
2004 10 04.25977 01 56 50.82 +06 30 18.8 18.8 R 699 – Lowell Observatory-LONEOS MPS 115628
2004 10 04.27922 01 56 49.96 +06 30 11.9   699 – Lowell Observatory-LONEOS MPS 115628
2004 10 04.29866 01 56 49.03 +06 30 07.1   699 – Lowell Observatory-LONEOS MPS 115628
2004 10 04.31814 01 56 48.25 +06 30 02.9   699 – Lowell Observatory-LONEOS MPS 115628
2004 10 07.18342 01 54 37.30 +06 16 34.5 18.8 R 699 – Lowell Observatory-LONEOS MPS 115628
2004 10 07.20285 01 54 36.30 +06 16 29.8   699 – Lowell Observatory-LONEOS MPS 115628
2004 10 07.22233 01 54 35.33 +06 16 22.8   699 – Lowell Observatory-LONEOS MPS 115628
2004 10 07.24181 01 54 34.41 +06 16 17.9   699 – Lowell Observatory-LONEOS MPS 115628
2004 10 07.28763 01 54 32.13 +06 16 06.5 19.0   704 – Lincoln Laboratory ETS, New Mexico MPS 115628
2004 10 07.29875 01 54 31.50 +06 16 02.7 18.8   704 – Lincoln Laboratory ETS, New Mexico MPS 115628
2004 10 07.30980 01 54 31.02 +06 15 58.7 18.9   704 – Lincoln Laboratory ETS, New Mexico MPS 115628
2004 10 07.32099 01 54 30.47 +06 15 56.2 19.3   704 – Lincoln Laboratory ETS, New Mexico MPS 115628
2004 10 07.33209 01 54 29.84 +06 15 53.4 19.3   704 – Lincoln Laboratory ETS, New Mexico MPS 115628
2004 10 09.26411 01 52 56.57 +06 06 35.7 19.4   704 – Lincoln Laboratory ETS, New Mexico MPS 116455
2004 10 09.27546 01 52 55.94 +06 06 31.1 19.5   704 – Lincoln Laboratory ETS, New Mexico MPS 116455
2004 10 09.28677 01 52 55.36 +06 06 28.6 19.1   704 – Lincoln Laboratory ETS, New Mexico MPS 116455
2004 10 09.29820 01 52 54.72 +06 06 25.0 19.4   704 – Lincoln Laboratory ETS, New Mexico MPS 116455
2004 11 02.21193 01 31 48.35 +04 19 38.3 20.1   644 – Palomar Mountain/NEAT MPS 118305
2004 11 02.23355 01 31 47.20 +04 19 34.0 19.6   644 – Palomar Mountain/NEAT MPS 118305
2004 11 02.25419 01 31 46.16 +04 19 29.8 19.5   644 – Palomar Mountain/NEAT MPS 118305
2004 11 06.20923 01 28 38.11 +04 07 05.1 19.1   704 – Lincoln Laboratory ETS, New Mexico MPS 119227
2004 11 06.22134 01 28 37.56 +04 07 01.4 19.0   704 – Lincoln Laboratory ETS, New Mexico MPS 119227
2004 11 06.23363 01 28 36.84 +04 06 59.8 19.1   704 – Lincoln Laboratory ETS, New Mexico MPS 119227
2004 11 06.24572 01 28 36.32 +04 06 57.6 19.2   704 – Lincoln Laboratory ETS, New Mexico MPS 119227
2004 11 18.18316 01 21 07.89 +03 45 16.3 18.9 C 704 – Lincoln Laboratory ETS, New Mexico MPS 291259
2004 11 18.21970 01 21 06.71 +03 45 14.5 18.6 C 704 – Lincoln Laboratory ETS, New Mexico MPS 291259
2004 11 18.23186 01 21 06.32 +03 45 13.1 19.7 C 704 – Lincoln Laboratory ETS, New Mexico MPS 291259
2006 03 03.38570 12 29 27.85 +02 11 54.3   691 – Steward Observatory, Kitt Peak-Spacewatch MPS 165926
2006 03 03.40424 12 29 27.04 +02 12 00.7   691 – Steward Observatory, Kitt Peak-Spacewatch MPS 165926
2006 03 03.42161 12 29 26.29 +02 12 06.6   691 – Steward Observatory, Kitt Peak-Spacewatch MPS 165926
2006 03 22.43722 12 13 51.81 +04 05 59.2 19.2 V 703 – Catalina Sky Survey MPS 166925
2006 03 22.44229 12 13 51.60 +04 06 00.3 19.2 V 703 – Catalina Sky Survey MPS 166925
2006 03 22.44735 12 13 51.27 +04 06 01.9 18.9 V 703 – Catalina Sky Survey MPS 166925
2006 03 22.45245 12 13 51.02 +04 06 03.6 19.5 V 703 – Catalina Sky Survey MPS 166925
2006 03 23.26804 12 13 07.96 +04 10 48.3 19.2   704 – Lincoln Laboratory ETS, New Mexico MPS 166925
2006 03 23.27931 12 13 07.36 +04 10 52.2 19.4   704 – Lincoln Laboratory ETS, New Mexico MPS 166925
2006 03 23.29058 12 13 06.74 +04 10 55.2 19.3   704 – Lincoln Laboratory ETS, New Mexico MPS 166925
